576  
NZUS93 KARX 210910  
HRRWXR  
 
CURRENT HOURLY OBSERVATIONS ACROSS  
MUCH OF THE UPPER MISSISSIPPI VALLEY  
NATIONAL WEATHER SERVICE LA CROSSE WI  
400 AM CDT THU OCT 21 2021  
 
   
..SOUTHEAST MINNESOTA
 
 
 
CITY SKY/WX TMP DP RH WIND PRES REMARKS  
ROCHESTER CLOUDY 50 49 96 NW9 29.79R FOG  
WINONA CLOUDY 52 52 100 W6 29.78R  
AUSTIN DRIZZLE 50 48 93 NW17G25 29.81R  
ALBERT LEA DRIZZLE 46 46 100 NW9G20 29.85R  
DODGE CENTER DRIZZLE 48 46 93 N18G25 29.81R  
PRESTON CLOUDY 45 44 95 SW5 29.80S FOG  
OWATONNA CLOUDY 46 46 100 NW16G23 29.86R FOG  
FARIBAULT DRIZZLE 46 45 93 N15G24 29.87R  

 
   
..ELSEWHERE IN MINNESOTA
 
 
 
CITY SKY/WX TMP DP RH WIND PRES REMARKS  
MINNEAPOLIS CLOUDY 45 42 89 N18G24 29.90R  
INTNL FALLS CLEAR 28 25 88 NW5 30.09S WCI 23  
DULUTH CLOUDY 37 32 82 N10 29.99R WCI 30  
RED WING LGT RAIN 48 46 93 N9 29.83R  
REDWOOD FALLS CLOUDY 44 42 93 N14G28 29.99R  
MANKATO CLOUDY 44 43 96 N18G26 29.91R  
WORTHINGTON CLOUDY 41 41 100 NW21 30.00R  
FAIRMONT LGT RAIN 45 44 97 NW18 29.93R  

 
   
..SOUTHWEST WISCONSIN
 
 
 
CITY SKY/WX TMP DP RH WIND PRES REMARKS  
LA CROSSE CLOUDY 52 50 93 SW7 29.78S  
PRAIRIE DU CHI DRIZZLE 46 43 86 SW6 29.82S  
BOSCOBEL CLOUDY 50 46 86 SW12 29.81F  
LONE ROCK CLOUDY 51 48 89 W5 29.79S  
PLATTEVILLE CLOUDY 47 47 100 W15 29.83S  
FORT MC COY CLOUDY 52 52 100 SW7 29.78F  
CAMP DOUGLAS CLOUDY 55 50 84 W12 29.75F  
MAUSTON-NEW LI CLOUDY 55 50 83 W10 29.76S  
VIROQUA CLOUDY 47 47 100 W7 29.79S  
WIS DELLS CLOUDY 51 47 86 W13 29.77S  

 
   
..ELSEWHERE IN WISCONSIN
 
 
 
CITY SKY/WX TMP DP RH WIND PRES REMARKS  
MILWAUKEE MOCLDY 60 54 80 SW15G22 29.76S  
MADISON CLOUDY 53 47 79 SW12G20 29.77S  
GREEN BAY CLOUDY 54 53 97 NE20G26 29.76F  
EAU CLAIRE CLOUDY 49 46 90 NE12G23 29.81R  
BLACK RVR FLS CLOUDY 54 51 91 SW5 29.77R FOG  
MEDFORD CLOUDY 44 44 100 NE12 29.81R  
WAUSAU LGT RAIN 50 45 83 N8 29.79S  
WIS RAPIDS LGT RAIN 51 50 96 NE6 29.77S  
MARSHFIELD LGT RAIN 49 47 93 NE12 29.78S FOG  
RICE LAKE LGT RAIN 44 43 96 N14 29.88R  

 
   
..NORTHEAST IOWA
 
 
 
CITY SKY/WX TMP DP RH WIND PRES REMARKS  
WATERLOO LGT RAIN 44 40 85 W12G23 29.84F  
DUBUQUE CLOUDY 45 43 93 W14 29.84S  
DECORAH CLOUDY 45 45 100 VRB6G13 29.79F  
MASON CITY LGT RAIN 48 45 89 NW22G33 29.86R  
CHARLES CITY LGT RAIN 45 45 100 W13 29.80F  
OELWEIN CLOUDY 43 41 93 W13 29.84S  

 
   
..ELSEWHERE IN IOWA
 
 
 
CITY SKY/WX TMP DP RH WIND PRES REMARKS  
DES MOINES CLOUDY 42 37 82 W17 29.97R  
IOWA CITY LGT RAIN 47 39 74 W10 29.91S  
FORT DODGE LGT RAIN 43 41 93 W13G20 29.93R FOG  
MARSHALLTOWN LGT RAIN 41 39 93 W17 29.89S  
CEDAR RAPIDS LGT RAIN 42 41 96 W21G28 29.88S  

 
   
..NORTHERN ILLINOIS
 
 
 
CITY SKY/WX TMP DP RH WIND PRES REMARKS  
CHICAGO-OHARE MOCLDY 55 47 74 W12G22 29.81F  
CHICAGO-MIDWAY PTCLDY 57 46 66 W13 29.82F  
MOLINE CLOUDY 51 42 71 W20G30 29.87F  
ROCKFORD CLOUDY 54 46 74 W13 29.83F  
PEORIA CLEAR 51 44 77 SW9 29.91S  

 
 
NOTE: "FAIR" INDICATES FEW OR NO CLOUDS BELOW 12,000 FEET WITH NO  
SIGNIFICANT WEATHER AND/OR OBSTRUCTIONS TO VISIBILITY. WIND  
SPEEDS ARE IN MILES-PER-HOUR.  
 
 
CLICK HERE TO GO TO PREVIOUS BULLETINS.

The Nexlab WI Page
The Nexlab IA Page
The Nexlab MN Page Main Text Page